| time (UTC) | temp F | wind direction | speed knots | gust knots | rain 1hr in | rain 24hr in | rain mn in | humidity % | barometer mb |
| 20260504050304 | 63 | 148 | 0.9 | 2.6 | 0.00 | 0.03 | 0.00 | 88 | 1010.7 |
| 20260504045804 | 63 | 148 | 0.0 | 0.0 | 0.00 | 0.03 | 0.00 | 88 | 1010.8 |
| 20260504045304 | 63 | 148 | 0.0 | 0.9 | 0.00 | 0.03 | 0.00 | 88 | 1010.8 |
| 20260504044805 | 63 | 148 | 0.9 | 1.7 | 0.00 | 0.03 | 0.00 | 88 | 1010.7 |
| 20260504044304 | 63 | 148 | 0.0 | 1.7 | 0.00 | 0.03 | 0.00 | 88 | 1010.8 |
| 20260504043804 | 63 | 148 | 0.0 | 0.0 | 0.00 | 0.03 | 0.00 | 88 | 1010.8 |
| 20260504043305 | 63 | 148 | 0.0 | 0.0 | 0.00 | 0.03 | 0.00 | 88 | 1010.8 |
| 20260504042804 | 63 | 148 | 0.0 | 0.0 | 0.00 | 0.03 | 0.00 | 88 | 1010.8 |
| 20260504041804 | 63 | 148 | 0.9 | 2.6 | 0.00 | 0.03 | 0.00 | 88 | 1011.0 |
| 20260504041304 | 63 | 148 | 0.0 | 0.0 | 0.00 | 0.03 | 0.00 | 88 | 1011.0 |
| 20260504040804 | 63 | 148 | 0.0 | 0.0 | 0.00 | 0.03 | 0.00 | 88 | 1011.0 |
| 20260504040304 | 63 | 148 | 0.0 | 0.0 | 0.00 | 0.03 | 0.00 | 88 | 1010.9 |
| 20260504035804 | 63 | 148 | 0.0 | 0.0 | 0.00 | 0.03 | 0.00 | 88 | 1011.1 |
| 20260504035305 | 63 | 148 | 0.0 | 0.0 | 0.00 | 0.03 | 0.00 | 88 | 1011.1 |
| 20260504034304 | 64 | 148 | 0.0 | 0.0 | 0.00 | 0.03 | 0.00 | 88 | 1011.3 |
| 20260504033804 | 64 | 148 | 0.0 | 0.0 | 0.00 | 0.03 | 0.00 | 88 | 1011.4 |
| 20260504033304 | 64 | 148 | 0.0 | 1.7 | 0.00 | 0.03 | 0.00 | 88 | 1011.5 |
| 20260504032804 | 64 | 148 | 0.0 | 1.7 | 0.00 | 0.03 | 0.00 | 88 | 1011.6 |
| 20260504032304 | 64 | 148 | 0.0 | 1.7 | 0.00 | 0.03 | 0.00 | 88 | 1011.6 |
| 20260504031804 | 64 | 148 | 0.0 | 0.9 | 0.00 | 0.03 | 0.00 | 88 | 1011.7 |
| 20260504031304 | 64 | 148 | 0.0 | 1.7 | 0.00 | 0.03 | 0.00 | 87 | 1011.7 |
| 20260504025804 | 64 | 148 | 0.0 | 0.0 | 0.00 | 0.03 | 0.00 | 87 | 1011.9 |
| 20260504025304 | 64 | 148 | 0.0 | 1.7 | 0.00 | 0.03 | 0.00 | 87 | 1011.9 |
| 20260504024304 | 64 | 148 | 0.0 | 1.7 | 0.00 | 0.03 | 0.00 | 86 | 1012.0 |
| 20260504023804 | 65 | 148 | 0.0 | 2.6 | 0.00 | 0.04 | 0.00 | 86 | 1011.9 |
| 20260504023304 | 65 | 148 | 1.7 | 4.3 | 0.00 | 0.04 | 0.00 | 86 | 1011.9 |
| 20260504022804 | 65 | 148 | 0.0 | 1.7 | 0.00 | 0.04 | 0.00 | 86 | 1011.8 |
| 20260504022305 | 65 | 148 | 0.9 | 1.7 | 0.00 | 0.05 | 0.00 | 86 | 1011.8 |
| 20260504021804 | 65 | 148 | 0.0 | 0.0 | 0.00 | 0.05 | 0.00 | 86 | 1011.8 |
| 20260504021304 | 65 | 148 | 0.0 | 0.0 | 0.00 | 0.05 | 0.00 | 86 | 1011.8 |
| 20260504020804 | 65 | 148 | 0.0 | 0.0 | 0.00 | 0.05 | 0.00 | 86 | 1011.8 |
| 20260504020304 | 65 | 148 | 0.0 | 0.0 | 0.00 | 0.05 | 0.00 | 86 | 1011.8 |
| 20260504015804 | 64 | 148 | 0.0 | 0.0 | 0.00 | 0.06 | 0.00 | 86 | 1011.8 |
| 20260504014804 | 65 | 148 | 0.9 | 1.7 | 0.00 | 0.06 | 0.00 | 86 | 1011.8 |
| 20260504014304 | 65 | 148 | 0.9 | 1.7 | 0.00 | 0.06 | 0.00 | 86 | 1011.8 |
| 20260504013304 | 65 | 148 | 0.0 | 1.7 | 0.00 | 0.06 | 0.00 | 86 | 1011.8 |
| 20260504012805 | 65 | 148 | 0.9 | 1.7 | 0.00 | 0.06 | 0.00 | 86 | 1011.7 |
| 20260504012304 | 65 | 148 | 0.9 | 1.7 | 0.00 | 0.06 | 0.00 | 85 | 1011.7 |
| 20260504011804 | 65 | 148 | 0.0 | 1.7 | 0.00 | 0.06 | 0.00 | 85 | 1011.7 |
| 20260504011304 | 65 | 148 | 0.0 | 1.7 | 0.00 | 0.06 | 0.00 | 84 | 1011.8 |
| 20260504010804 | 65 | 148 | 0.0 | 1.7 | 0.00 | 0.06 | 0.00 | 84 | 1011.7 |
| 20260504010304 | 65 | 148 | 0.9 | 1.7 | 0.00 | 0.06 | 0.00 | 84 | 1011.7 |
| 20260504005804 | 65 | 148 | 0.0 | 0.9 | 0.00 | 0.06 | 0.00 | 83 | 1011.6 |
| 20260504005305 | 66 | 148 | 0.9 | 1.7 | 0.00 | 0.06 | 0.00 | 82 | 1011.6 |
| 20260504004805 | 66 | 148 | 0.9 | 2.6 | 0.00 | 0.06 | 0.00 | 81 | 1011.6 |
| 20260504003804 | 66 | 147 | 0.9 | 2.6 | 0.00 | 0.06 | 0.00 | 81 | 1011.6 |
| 20260504003304 | 66 | 147 | 0.9 | 2.6 | 0.00 | 0.06 | 0.00 | 81 | 1011.7 |
| 20260504002804 | 66 | 147 | 0.9 | 2.6 | 0.00 | 0.06 | 0.00 | 80 | 1011.8 |
| 20260504002304 | 66 | 147 | 0.9 | 1.7 | 0.00 | 0.06 | 0.00 | 80 | 1011.9 |
| 20260504001804 | 66 | 147 | 0.9 | 0.9 | 0.00 | 0.06 | 0.00 | 80 | 1011.9 |
| 20260504001304 | 66 | 147 | 0.0 | 0.0 | 0.00 | 0.06 | 0.00 | 80 | 1012.0 |
| 20260504000803 | 66 | 147 | 0.0 | 0.0 | 0.00 | 0.06 | 0.00 | 80 | 1012.0 |
| 20260504000304 | 66 | 147 | 0.0 | 0.9 | 0.00 | 0.06 | 0.00 | 81 | 1012.1 |
| 20260503235804 | 66 | 147 | 1.7 | 2.6 | 0.00 | 0.06 | 0.00 | 81 | 1012.2 |
| 20260503235305 | 66 | 147 | 0.0 | 0.0 | 0.00 | 0.06 | 0.00 | 80 | 1012.3 |
| 20260503234804 | 66 | 147 | 0.0 | 2.6 | 0.00 | 0.06 | 0.00 | 80 | 1012.3 |
| 20260503233804 | 66 | 147 | 0.0 | 1.7 | 0.00 | 0.06 | 0.00 | 81 | 1012.4 |
| 20260503232804 | 66 | 148 | 0.0 | 0.0 | 0.00 | 0.06 | 0.00 | 81 | 1012.5 |
| 20260503232305 | 66 | 148 | 0.0 | 0.0 | 0.00 | 0.06 | 0.00 | 81 | 1012.5 |
| 20260503231805 | 66 | 148 | 0.0 | 0.0 | 0.00 | 0.06 | 0.00 | 81 | 1012.6 |
| 20260503231304 | 66 | 148 | 0.0 | 0.0 | 0.00 | 0.06 | 0.00 | 81 | 1012.7 |
| 20260503230804 | 66 | 148 | 0.0 | 0.0 | 0.00 | 0.06 | 0.00 | 80 | 1012.7 |
| 20260503225804 | 66 | 148 | 0.0 | 0.0 | 0.00 | 0.06 | 0.00 | 80 | 1012.7 |
| 20260503225305 | 66 | 148 | 0.0 | 0.0 | 0.00 | 0.06 | 0.00 | 80 | 1012.7 |
| 20260503224804 | 66 | 148 | 0.0 | 0.0 | 0.00 | 0.06 | 0.00 | 80 | 1012.6 |
| 20260503224304 | 66 | 148 | 0.0 | 0.0 | 0.00 | 0.06 | 0.00 | 80 | 1012.6 |
| 20260503223804 | 66 | 148 | 0.0 | 0.0 | 0.00 | 0.06 | 0.00 | 80 | 1012.6 |
| 20260503223304 | 66 | 148 | 0.0 | 0.0 | 0.00 | 0.06 | 0.00 | 80 | 1012.6 |
| 20260503222804 | 66 | 148 | 0.0 | 0.0 | 0.00 | 0.06 | 0.00 | 80 | 1012.6 |
| 20260503222304 | 66 | 148 | 0.0 | 4.3 | 0.00 | 0.06 | 0.00 | 80 | 1012.6 |
| 20260503221804 | 66 | 147 | 0.0 | 1.7 | 0.00 | 0.06 | 0.00 | 80 | 1012.6 |
| 20260503221304 | 66 | 147 | 0.0 | 2.6 | 0.00 | 0.06 | 0.00 | 80 | 1012.7 |
| 20260503220818 | 66 | 148 | 1.7 | 2.6 | 0.00 | 0.06 | 0.00 | 80 | 1012.6 |
| 20260503220305 | 66 | 147 | 0.9 | 2.6 | 0.00 | 0.06 | 0.00 | 80 | 1012.7 |
| 20260503215804 | 66 | 148 | 0.0 | 1.7 | 0.00 | 0.06 | 0.06 | 80 | 1012.4 |
| 20260503215304 | 66 | 148 | 1.7 | 4.3 | 0.00 | 0.06 | 0.06 | 80 | 1012.5 |
| 20260503214804 | 66 | 148 | 1.7 | 2.6 | 0.00 | 0.06 | 0.06 | 80 | 1012.6 |
| 20260503214304 | 66 | 147 | 0.0 | 1.7 | 0.00 | 0.06 | 0.06 | 80 | 1012.6 |
| 20260503213804 | 66 | 147 | 0.0 | 0.0 | 0.00 | 0.06 | 0.06 | 79 | 1012.7 |
| 20260503213304 | 66 | 147 | 0.0 | 0.0 | 0.00 | 0.06 | 0.06 | 79 | 1012.8 |
| 20260503212804 | 66 | 147 | 0.0 | 0.9 | 0.00 | 0.06 | 0.06 | 79 | 1013.1 |
| 20260503212305 | 66 | 147 | 0.9 | 1.7 | 0.00 | 0.06 | 0.06 | 79 | 1013.1 |
| 20260503211804 | 66 | 147 | 1.7 | 2.6 | 0.00 | 0.06 | 0.06 | 79 | 1013.0 |
| 20260503210804 | 66 | 147 | 1.7 | 4.3 | 0.00 | 0.06 | 0.06 | 78 | 1013.0 |
| 20260503210304 | 66 | 134 | 2.6 | 4.3 | 0.00 | 0.06 | 0.06 | 79 | 1013.0 |
| 20260503205804 | 66 | 146 | 1.7 | 2.6 | 0.00 | 0.06 | 0.06 | 78 | 1012.9 |
| 20260503204804 | 67 | 146 | 2.6 | 4.3 | 0.00 | 0.06 | 0.06 | 78 | 1012.7 |
| 20260503204304 | 67 | 146 | 2.6 | 4.3 | 0.00 | 0.06 | 0.06 | 78 | 1012.7 |
| 20260503203804 | 66 | 146 | 2.6 | 4.3 | 0.00 | 0.06 | 0.06 | 78 | 1012.6 |
| 20260503203304 | 66 | 146 | 1.7 | 4.3 | 0.00 | 0.06 | 0.06 | 78 | 1012.5 |
| 20260503202804 | 66 | 146 | 1.7 | 2.6 | 0.00 | 0.06 | 0.06 | 78 | 1012.5 |
| 20260503202304 | 66 | 146 | 0.9 | 2.6 | 0.00 | 0.06 | 0.06 | 78 | 1012.4 |
| 20260503201804 | 66 | 146 | 0.9 | 1.7 | 0.00 | 0.06 | 0.06 | 78 | 1012.3 |
| 20260503201304 | 66 | 146 | 0.9 | 2.6 | 0.00 | 0.06 | 0.06 | 78 | 1012.3 |
| 20260503200803 | 66 | 146 | 0.9 | 2.6 | 0.00 | 0.06 | 0.06 | 77 | 1012.2 |
| 20260503195804 | 66 | 147 | 0.9 | 2.6 | 0.00 | 0.06 | 0.06 | 77 | 1012.1 |
| 20260503195304 | 66 | 146 | 1.7 | 4.3 | 0.00 | 0.06 | 0.06 | 77 | 1012.0 |
| 20260503194803 | 66 | 146 | 0.0 | 0.0 | 0.00 | 0.06 | 0.06 | 77 | 1011.8 |
| 20260503193803 | 66 | 146 | 1.7 | 4.3 | 0.00 | 0.06 | 0.06 | 77 | 1011.6 |
| 20260503193304 | 66 | 146 | 1.7 | 2.6 | 0.00 | 0.06 | 0.06 | 77 | 1011.6 |
| 20260503192804 | 66 | 143 | 4.3 | 6.1 | 0.00 | 0.06 | 0.06 | 77 | 1011.5 |
| 20260503192305 | 66 | 143 | 3.5 | 5.2 | 0.00 | 0.06 | 0.06 | 77 | 1011.3 |
| 20260503191804 | 67 | 106 | 5.2 | 7.0 | 0.00 | 0.06 | 0.06 | 78 | 1011.2 |
| 20260503191304 | 67 | 104 | 4.3 | 7.0 | 0.00 | 0.06 | 0.06 | 79 | 1011.3 |
| 20260503190804 | 67 | 125 | 4.3 | 7.0 | 0.00 | 0.06 | 0.06 | 79 | 1011.4 |
| 20260503190303 | 67 | 125 | 3.5 | 6.1 | 0.00 | 0.06 | 0.06 | 78 | 1011.4 |
| 20260503185804 | 67 | 155 | 1.7 | 4.3 | 0.00 | 0.06 | 0.06 | 78 | 1011.7 |
| 20260503184804 | 67 | 155 | 3.5 | 5.2 | 0.00 | 0.06 | 0.06 | 78 | 1011.9 |
| 20260503184303 | 67 | 155 | 2.6 | 6.1 | 0.00 | 0.06 | 0.06 | 78 | 1011.7 |
| 20260503183803 | 67 | 143 | 4.3 | 6.1 | 0.00 | 0.06 | 0.06 | 78 | 1011.5 |
| 20260503183304 | 68 | 122 | 3.5 | 7.0 | 0.00 | 0.06 | 0.06 | 78 | 1011.5 |
| 20260503182804 | 68 | 112 | 4.3 | 7.0 | 0.00 | 0.06 | 0.06 | 78 | 1011.5 |
| 20260503182305 | 68 | 149 | 4.3 | 6.1 | 0.00 | 0.06 | 0.06 | 78 | 1011.4 |
| 20260503181804 | 68 | 149 | 4.3 | 6.1 | 0.00 | 0.06 | 0.06 | 77 | 1011.4 |
| 20260503181303 | 68 | 147 | 4.3 | 7.0 | 0.00 | 0.06 | 0.06 | 77 | 1011.5 |
| 20260503180804 | 68 | 119 | 4.3 | 6.1 | 0.00 | 0.06 | 0.06 | 77 | 1011.4 |
| 20260503175804 | 68 | 135 | 2.6 | 6.1 | 0.00 | 0.06 | 0.06 | 77 | 1011.2 |
| 20260503174804 | 68 | 102 | 4.3 | 5.2 | 0.00 | 0.06 | 0.06 | 76 | 1011.3 |
| 20260503174304 | 68 | 90 | 4.3 | 5.2 | 0.00 | 0.06 | 0.06 | 76 | 1011.3 |
| 20260503173804 | 69 | 115 | 3.5 | 6.1 | 0.00 | 0.06 | 0.06 | 75 | 1011.2 |
| 20260503173303 | 69 | 73 | 2.6 | 7.0 | 0.00 | 0.06 | 0.06 | 74 | 1011.4 |
| 20260503172305 | 69 | 108 | 4.3 | 7.8 | 0.00 | 0.06 | 0.06 | 73 | 1011.4 |
| 20260503140305 | 71 | 31 | 5.2 | 7.8 | 0.00 | 0.06 | 0.06 | 69 | 1012.5 |
| 20260503131305 | 72 | 30 | 4.3 | 8.7 | 0.00 | 0.06 | 0.06 | 65 | 1012.7 |
| 20260503130804 | 72 | 59 | 4.3 | 7.0 | 0.00 | 0.06 | 0.06 | 64 | 1012.7 |
| 20260503110805 | 70 | 94 | 4.3 | 7.0 | 0.00 | 0.06 | 0.06 | 74 | 1013.7 |
| 20260503110305 | 70 | 115 | 4.3 | 6.1 | 0.00 | 0.06 | 0.06 | 75 | 1013.7 |
| 20260503081304 | 65 | 126 | 1.7 | 2.6 | 0.03 | 0.07 | 0.06 | 88 | 1014.6 |
| 20260503080805 | 65 | 125 | 0.9 | 2.6 | 0.02 | 0.06 | 0.05 | 88 | 1014.6 |
| 20260503080304 | 65 | 125 | 0.9 | 4.3 | 0.02 | 0.06 | 0.05 | 88 | 1014.4 |
| 20260503072804 | 66 | 130 | 1.7 | 4.3 | 0.00 | 0.04 | 0.03 | 86 | 1014.3 |
| 20260503071804 | 65 | 108 | 1.7 | 4.3 | 0.00 | 0.04 | 0.03 | 86 | 1014.1 |
| 20260503070805 | 65 | 105 | 0.9 | 1.7 | 0.00 | 0.04 | 0.03 | 87 | 1014.1 |